Location: Betzi
(47.2343°N, 9.5260°E)
Time: 21:20:50
(UTC+00:00)

Cosmos 1674 Rocket - Pass Details

Date: 27 May 2022
Orbit: 603 x 629 km, 82.5° (Epoch: 29 June)

Event Time Altitude Azimuth Distance (km) Brightness Sun altitude
Exits shadow 00:23:13 32° 253° (WSW) 1,054 4.4 -20.0°
Maximum altitude 00:24:16 37° 286° (WNW) 953 4.5 -19.9°
Drops below altitude 10° 00:28:18 10° 354° (N) 1,963 7.1 -19.7°
Sets 00:30:40 0° 3° (N) 2,869 8.4 -19.6°
